Location: B?ezina
(49.8085°N, 13.6013°E)
Time: 20:29:42
(UTC+00:00)

Cosmos 1842 Rocket - Pass Details

Date: 19 May 2025
Orbit: 601 x 626 km, 82.5° (Epoch: 20 June)

Event Time Altitude Azimuth Distance (km) Brightness Sun altitude
Exits shadow 21:25:50 31° 130° (SE) 1,062 4.3 -17.0°
Maximum altitude 21:27:05 39° 92° (E) 917 4.2 -17.1°
Drops below altitude 10° 21:31:06 10° 24° (NNE) 1,956 6.7 -17.4°
Sets 21:33:25 0° 17° (NNE) 2,865 7.8 -17.5°
